ANTARES R/B (47690 NORAD) Tracking and Keplerian Element Data

This shows tracking and keplerian element data for the satellite.

Feedback or suggestion? Click here.




ElementValue
Catalog47690
NameANTARES R/B
Epoch Orbit82
Epoch Day56.86438946
Epoch Year2021
RAAN171.0961
Inclination51.6348
Eccentricity0.0074609
Argument of Perigee159.7627
Mean Anonmoly200.8196
Mean Motion16.19096973
Decay Rate0.02115963
L11 47690U 21013B 21056.86438946 .02115963 11742-4 62132-3 0 9998
L22 47690 51.6348 171.0961 0074609 159.7627 200.8196 16.19096973 820

Live tracking and technical data element details for ANTARES R/B (NORAD 47690). ANTARES R/B can be tracked NOW for your location showing map with azimuth and elevation plus other details from your city location.

Track the satellite on the map from your city or location and see movement details for azimuth, elevation, latitude, longitude, range, height, and movement on the map or in text.







IsCatalogInMostPopularTable: catalog: 47690, numindb: 1
Update: records affected: 1



GetName: 47690 ANTARES R/B

Hit Count: updated at: Fri, 26 Feb 2021 10:25:46 GMT